Regional Weather Roundup
Issued by NWS Mt. Holly, NJ

Home | Current Version | Previous Version | Text Only | Print | Product List | Glossary On
Versions: 1 2 3 4 5 6 7 8 9 10 11 12 13 14 15 16 17 18 19 20 21 22 23 24 25 26 27 28 29 30 31 32 33 34 35 36 37 38 39 40 41 42 43 44 45 46 47 48 49 50
000
ASUS41 KPHI 090312
RWRPHI

REGIONAL WEATHER ROUNDUP
NATIONAL WEATHER SERVICE MOUNT HOLLY NJ
1000 PM EST MON FEB 08 2016

NOTE:  "FAIR" INDICATES FEW OR NO CLOUDS BELOW 12,000 FEET WITH NO
SIGNIFICANT WEATHER AND/OR OBSTRUCTIONS TO VISIBILITY.

 * = STATION DOES NOT REPORT PRECIPITATION (E.G. RAIN, SNOW, ETC.)
        OR FOG.

NJZ015>026-090400-
SOUTHERN NEW JERSEY

CITY           SKY/WX    TMP DP  RH WIND       PRES   REMARKS
POMONA         LGT SNOW  33  31  92 E8        29.75F FOG     WCI  26
WILDWOOD*      CLOUDY    36  30  80 E9        29.75F WCI  29
MILLVILLE      LGT SNOW  33  31  92 E8        29.74F FOG     WCI  26
WRIGHTSTOWN    MIX PCPN  31  31  99 E8        29.74F WCI  23
MOUNT HOLLY    CLOUDY    32  25  75 E7        29.76F WCI  26
TRENTON        LGT SNOW  31  25  78 SE10      29.75F WCI  22

$$
NJZ001>014-090400-
NORTHERN NEW JERSEY

CITY           SKY/WX    TMP DP  RH WIND       PRES   REMARKS
SUSSEX         CLOUDY    27  22  81 NE8       29.76F WCI  19
ANDOVER*         N/A     28  23  81 NE7       29.74F WCI  21
MORRISTOWN     CLOUDY    30  25  80 E8        29.80S WCI  23
NEWARK         FLURRIES  30  23  75 NE7       29.80F WCI  23
TETERBORO      FLURRIES  29  23  78 NE5       29.80S WCI  24
CALDWELL       CLOUDY    29  24  82 E8        29.80S WCI  21
SOMERVILLE     CLOUDY    32  24  72 E6        29.75F WCI  26
ALLAIRE*       CLOUDY    30  21  69 NE3       29.78F
TOMS RIVER*    CLOUDY    30  27  86 NE7       29.78F WCI  23

$$
PAZ043-044-047-054-055-060>062-066>071-090400-
EASTERN PENNSYLVANIA

CITY           SKY/WX    TMP DP  RH WIND       PRES   REMARKS
PHILADELPHIA   LGT SNOW  33  27  78 SE9       29.76F WCI  25
NORTH PHILA    FLURRIES  33  27  78 E8        29.78S WCI  26
BLUE BELL*       N/A     32  28  86 SE3       29.74S
DOYLESTOWN     CLOUDY    31  24  75 VRB6      29.74S WCI  25
QUAKERTOWN*    CLOUDY    32  25  74 SE10      29.74R WCI  24
POTTSTOWN      LGT SNOW  31  28  89 CALM      29.75S FOG
LANCASTER      LGT SNOW  32  32 100 E5        29.70F VSB 3/4 WCI  27
COATESVILLE    LGT SNOW  32  32 100 SE6       29.72S WCI  26
READING        LGT SNOW  33  29  85 SE9       29.71S FOG     WCI  25
ALLENTOWN      CLOUDY    36  22  56 SE6       29.72F WCI  31
MOUNT POCONO   CLOUDY    26  13  57 E10       29.64F WCI  16
HAZLETON       LGT SNOW  30  23  74 SE10G17   29.67S WCI  21
LEHIGHTON      CLOUDY    34  19  55 CALM      29.72S
WILKES BARRE   CLOUDY    33  16  49 SE8G18    29.65F WCI  26

$$
DEZALL-MDZ008-012-015-019-020-090400-
DELAWARE AND EASTERN MARYLAND

CITY           SKY/WX    TMP DP  RH WIND       PRES   REMARKS
WILMINGTON     LGT SNOW  33  31  92 SE9       29.75S FOG     WCI  25
DOVER          FLURRIES  34  34 100 E10       29.72F WCI  26
GEORGETOWN     MIX PCPN  35  34  96 E6        29.74F WCI  30
EASTON         DRIZZLE   37  37 100 SE6       29.76F WCI  32
PATUXENT       CLOUDY    39  33  79 SE14      29.70F WCI  31
OCEAN CITY     CLOUDY    39  34  82 SE9       29.74F WCI  33
WALLOPS ISLAND MOCLDY    39  34  82 E8        29.72F WCI  33
CAMBRIDGE      CLOUDY    36  32  87 E8        29.71F WCI  29
SALISBURY      CLOUDY    35  34  96 E7        29.72F WCI  29

$$
PAZ001-021-NYZ056-072-MDZ011-DCZ001-090400-
OTHER NEARBY LOCATIONS

CITY           SKY/WX    TMP DP  RH WIND       PRES   REMARKS
HARRISBURG     LGT SNOW  34  31  88 E7        29.69S WCI  28
STATE COLLEGE  CLOUDY    34  29  83 CALM      29.61F
WILLIAMSPORT   LGT SNOW  34  31  88 MISG      29.66F FOG
BINGHAMTON     CLOUDY    30  18  60 SE10      29.62F WCI  21
NEW YORK CITY  CLOUDY    28  22  78 NE6       29.82S WCI  22
BALTIMORE      CLOUDY    38  34  85 S6        29.70S WCI  33
WASHINGTON DC  LGT RAIN  39  34  82 SE6       29.70F WCI  35

$$



USA.gov is the U.S. government's official web portal to all federal, state and local government web resources and services.